一网星座-0168星 (ONEWEB-0168 )

导读 | 星芒AI

ONEWEB-0168 是 OneWeb 卫星星座计划中的一颗低轨通信卫星,旨在为全球提供高速互联网服务。该卫星采用标准化设计,由空中客车公司制造,于2022年发射入轨。作为 OneWeb 项目的一部分,它运行在约1200公里高度的近极地轨道,与其他卫星协同工作,覆盖偏远和未连接地区。ONEWEB-0168 在提升全球数字接入、支持航空与航海通信等方面发挥重要作用,并助力实现联合国可持续发展目标中的数字包容性。

基本信息
目录编号:
48068
目录名称:
ONEWEB-0168
国际标识:
2021-025AC
轨道中心:
EARTH
卫星名称:
一网星座-0168星
卫星全名:
一网星座-0168星 (ONEWEB-0168 )
卫星状态:
在轨 (已飞行1726 天)
发射日期:
2021-03-25 UTC
国别 :
英国 (GB)
星等 :
--
轨道信息
数据来源 国际轨道数据 AOE轨道数据
星历时间 2025-12-15T06:39:59+0800
20小时前
查看轨道信息
2025-12-15T20:00:00+0800
7小时前
查看轨道信息
半长轴 7587.9km 7587.905km
偏心率 0.0001568 0.0001815
轨道倾角 87.899° 87.900°
近地点辐角 89.962° 93.219°
升交点赤经 356.829° 356.718°
平近点角 270.169° 12.413°
近地点 1208.575km 1208.392km
远地点 1210.955km 1211.148km
周期 109.633分钟 109.633分钟
每日圈数 13.134708 13.134695
详细信息
平衡模式:
三轴稳定
覆盖范围:
全球
运营商:
一网卫星公司
运营商所在国:
英国
制造商(研发单位):
一网卫星公司
制造商所在国:
英国
使用方式:
暂无
卫星简介
OneWeb卫星网络由648颗重约125公斤的微型卫星组成,运行在1200公里的轨道上。 每颗卫星都能够提供至少每秒8千兆位的吞吐量,以使用其高吞吐量的Ku频段有效载荷为家庭和移动平台提供互联网接入。该卫星仍在工作。
2D轨道图
3D轨道图
轨道高度分析图
轨道倾角分析图
轨道综合分析图
查看轨道综合分析图